[[{"header":{"parameterUnit":"m.s-1","parameterCategory":1,"la1":30.2991,"la2":30.254,"lo1":-89.0895,"lo2":-89.0444,"dy":0.0017,"dx":0.0017,"nx":28,"ny":28,"refTime":"2024-10-21T09:00:00:Z","depth":0,"parameterNumber":2,"parameterNumberName":"U-component_of_WINDS"},"data":[0,0,0,0,0,0,0,0,0,0,0,0,0,0,0,0,0,0,0,0,0,0,0,0,0,0,0,0,0,0,0,0,0,0,0,0,0,0,0,0,0,0,0,0,0,0,0,0,0,0,0,0,0,0,0,0,0,0,-2.6817,-2.6818,0,-2.6857,-2.6858,-2.6858,-2.68,-2.6798,-2.6796,-2.6794,-2.6837,-2.684,-2.6843,0,0,0,0,0,0,0,0,0,0,0,0,0,-2.6693,-2.6695,-2.6817,-2.6818,-2.6818,-2.6857,-2.6858,-2.6858,-2.68,-2.6798,-2.6795,-2.6793,-2.6836,-2.6839,-2.6843,0,0,0,0,0,0,0,0,0,0,0,0,0,-2.6741,-2.6696,-2.6817,-2.6794,-2.6792,-2.6857,-2.6858,-2.6859,-2.6801,-2.6798,-2.6795,-2.6792,-2.6834,-2.6839,-2.6843,-2.6933,0,0,-2.6857,-2.6859,0,0,0,0,0,0,0,0,-2.6738,-2.6746,-2.6797,-2.6796,-2.6794,-2.682,-2.6829,-2.6884,-2.6802,-2.6798,-2.6794,-2.679,-2.6834,-2.6838,-2.6853,-2.6935,-2.6937,-2.6858,-2.6861,-2.6863,-2.6864,0,0,0,0,0,0,0,-2.6735,-2.6744,-2.6833,-2.6798,-2.6796,-2.6782,-2.6786,-2.6839,-2.6833,-2.6798,-2.6794,-2.6799,-2.6833,-2.6848,-2.6853,-2.6938,-2.6858,-2.6862,-2.6865,-2.6866,-2.7099,-2.7102,0,0,0,0,0,0,-2.6734,-2.6741,-2.6832,-2.6834,-2.6758,-2.6787,-2.6791,-2.6815,-2.6832,-2.6831,-2.6802,-2.6796,-2.6842,-2.6848,-2.6855,-2.6963,-2.6863,-2.6867,-2.687,-2.7095,-2.7099,-2.7103,0,0,0,0,0,0,-2.6732,-2.6743,-2.683,-2.6787,-2.6797,-2.6792,-2.682,-2.6818,-2.6833,-2.6835,-2.6833,-2.6819,-2.684,-2.6848,-2.6915,-2.6963,-2.6869,-2.6873,-2.7091,-2.7097,-2.7101,-2.7179,0,0,0,0,0,0,-2.6729,-2.6742,-2.6776,-2.6788,-2.6799,-2.6889,-2.6823,-2.6821,-2.6841,-2.6834,-2.6851,-2.6851,-2.6838,-2.6908,-2.6919,-2.6968,-2.6877,-2.7087,-2.7094,-2.71,-2.7172,-2.7186,-2.7198,0,0,0,0,0,-2.6724,-2.6796,-2.6778,-2.6789,-2.6841,-2.6892,-2.6899,-2.6882,-2.6845,-2.688,-2.6881,-2.685,-2.6956,-2.6915,-2.6927,-2.6978,-2.7084,-2.7092,-2.7099,-2.7166,-2.7183,-2.7198,0,0,0,0,0,0,-2.679,-2.6797,-2.6777,-2.6855,-2.6873,-2.6882,-2.6925,-2.6901,-2.693,-2.6923,-2.6902,-2.6906,-2.6978,-2.6984,-2.6939,-2.7067,-2.7014,-2.7024,-2.7061,-2.7077,-2.709,-2.7088,-2.688,0,0,0,0,0,-2.6814,-2.6854,-2.6858,-2.6926,-2.6937,-2.6929,-2.6951,-2.6937,-2.6955,-2.6963,-2.6969,-2.6988,-2.7026,-2.7052,-2.7086,-2.7172,-2.7176,-2.7213,-2.7226,-2.7237,-2.7247,-2.7295,-2.7312,-2.7128,-2.7128,-2.7128,0,0,-2.6863,-2.6872,-2.6899,-2.694,-2.6953,-2.6996,-2.6936,-2.6984,-2.7016,-2.697,-2.7034,-2.7039,-2.706,-2.7137,-2.7171,-2.7145,-2.7298,-2.7247,-2.7255,-2.7259,-2.7305,-2.7322,-2.7338,-2.7134,-2.7133,-2.7132,0,0,-2.6975,-2.6985,-2.7044,-2.7058,-2.7078,-2.7073,-2.7087,-2.71,-2.7101,-2.7165,-2.7132,-2.717,-2.7235,-2.7252,-2.7269,-2.7388,-2.7362,-2.74,-2.7469,-2.7516,-2.7531,-2.7543,-2.7588,-2.7604,-2.7409,-2.741,-2.741,0,-2.7034,-2.7097,-2.7078,-2.7128,-2.7148,-2.7108,-2.7168,-2.7183,-2.7214,-2.7229,-2.7198,-2.728,-2.7291,-2.7372,-2.7402,-2.7416,-2.7433,-2.7399,-2.753,-2.7542,-2.7554,-2.7597,-2.7613,-2.7414,-2.7414,-2.7413,-2.7413,0,-2.717,-2.7214,-2.726,-2.729,-2.7315,-2.737,-2.736,-2.7387,-2.7371,-2.737,-2.7436,-2.7447,-2.7485,-2.7503,-2.7487,-2.7583,-2.7566,-2.7533,-2.7479,-2.7577,-2.7616,-2.7632,-2.7421,-2.7419,-2.7418,-2.7417,0,0,-2.7326,-2.7345,-2.7362,-2.7376,-2.7396,-2.743,-2.7484,-2.752,-2.7545,-2.7567,-2.7613,-2.767,-2.764,-2.7659,-2.7645,-2.7686,-2.7783,-2.7649,-2.7649,-2.7675,-2.7892,-2.7918,-2.7937,-2.7765,-2.7768,-2.7771,-2.7891,0,-2.7439,-2.7532,-2.7516,-2.7607,-2.7649,-2.7612,-2.7659,-2.7677,-2.7677,-2.7713,-2.7713,-2.7754,-2.771,-2.7722,-2.7761,-2.7763,-2.7827,-2.7754,-2.781,-2.7812,-2.7808,-2.7958,-2.7985,-2.8098,-2.7906,-2.7909,-2.791,0,-2.7584,-2.7613,-2.7708,-2.7722,-2.7739,-2.7781,-2.7814,-2.7849,-2.7868,-2.7866,-2.7888,-2.7867,-2.7922,-2.7866,-2.7943,-2.7894,-2.7915,-2.792,-2.7924,-2.793,-2.7869,-2.797,-2.8133,-2.8151,-2.7934,-2.7932,-2.7931,0,-2.7691,-2.7752,-2.7818,-2.7831,-2.7848,-2.788,-2.7889,-2.7905,-2.7928,-2.7957,-2.7972,-2.8007,-2.8027,-2.8055,-2.8044,-2.8004,-2.8124,-2.8067,-2.8125,-2.8126,-2.8153,-2.8152,-2.8325,-2.8164,-2.8164,-2.8164,-2.8163,0,-2.7821,-2.7881,-2.7866,-2.7907,-2.7973,-2.7955,-2.8022,-2.8026,-2.8041,-2.8083,-2.8052,-2.8092,-2.8075,-2.8114,-2.8106,-2.8172,-2.818,-2.8181,-2.8179,-2.8185,-2.8185,-2.82,-2.8193,-2.8168,-2.8167,-2.8166,-2.8165,0,-2.7952,-2.7944,-2.8013,-2.8024,-2.8029,-2.8078,-2.8088,-2.8126,-2.8124,-2.8177,-2.8188,-2.8185,-2.823,-2.8221,-2.827,-2.8265,-2.8349,-2.8335,-2.8342,-2.834,-2.8399,-2.8395,-2.859,-2.8615,-2.8436,-2.8438,-2.8439,0,-2.8036,-2.8082,-2.8098,-2.8123,-2.8135,-2.8176,-2.82,-2.8183,-2.821,-2.8236,-2.8272,-2.8314,-2.8346,-2.8419,-2.8422,-2.846,-2.8449,-2.8514,-2.8454,-2.846,-2.8452,-2.8451,-2.8456,-2.8527,-2.8529,-2.8531,-2.8532,0,-2.8187,-2.8182,-2.8217,-2.8251,-2.8281,-2.8307,-2.8331,-2.8353,-2.8339,-2.837,-2.8415,-2.8441,-2.8491,-2.8533,-2.8569,-2.8579,-2.8555,-2.8551,-2.8567,-2.8575,-2.8578,-2.8579,-2.8377,-2.8547,-2.8545,-2.8544,-2.8543,-2.8543,-2.8299,-2.8339,-2.8357,-2.8397,-2.8413,-2.8436,-2.8474,-2.8476,-2.8513,-2.8553,-2.8541,-2.8593,-2.8612,-2.8657,-2.8672,-2.8713,-2.8689,-2.8711,-2.8717,-2.8724,-2.8732,-2.8569,-2.8719,-2.8718,-2.8718,-2.8718,-2.8717,0,-2.8451,-2.8461,-2.8498,-2.8532,-2.8565,-2.8537,-2.8562,-2.8592,-2.8638,-2.8658,-2.8691,-2.8743,-2.8785,-2.8791,-2.883,-2.8862,-2.8852,-2.8874,-2.8872,-2.8876,-2.875,-2.8733,-2.8881,-2.8881,-2.8881,-2.8881,-2.8881,-2.8881,-2.8534,-2.86,-2.8596,-2.867,-2.868,-2.873,-2.8747,-2.8769,-2.8785,-2.8845,-2.8879,-2.8883,-2.8898,-2.8939,-2.8976,-2.8977,-2.8994,-2.902,-2.9017,-2.89,-2.8884,-2.8868,-2.8853,-2.9023,-2.9024,-2.9139,-2.914,-2.9141]},{"header":{"parameterUnit":"m.s-1","parameterCategory":1,"la1":30.2991,"la2":30.254,"lo1":-89.0895,"lo2":-89.0444,"dy":0.0017,"dx":0.0017,"nx":28,"ny":28,"refTime":"2024-10-21T09:00:00:Z","depth":0,"parameterNumber":3,"parameterNumberName":"V-component_of_WINDS"},"data":[0,0,0,0,0,0,0,0,0,0,0,0,0,0,0,0,0,0,0,0,0,0,0,0,0,0,0,0,0,0,0,0,0,0,0,0,0,0,0,0,0,0,0,0,0,0,0,0,0,0,0,0,0,0,0,0,0,0,-1.2915,-1.2915,0,-1.2897,-1.2897,-1.2896,-1.2842,-1.2841,-1.284,-1.2839,-1.2822,-1.2822,-1.2823,0,0,0,0,0,0,0,0,0,0,0,0,0,-1.2903,-1.2903,-1.2915,-1.2915,-1.2914,-1.2897,-1.2897,-1.2896,-1.2842,-1.2841,-1.2839,-1.2838,-1.2821,-1.2822,-1.2823,0,0,0,0,0,0,0,0,0,0,0,0,0,-1.2899,-1.2904,-1.2915,-1.2885,-1.2882,-1.2897,-1.2897,-1.2896,-1.2843,-1.2841,-1.2839,-1.2837,-1.2821,-1.2822,-1.2823,-1.2865,0,0,-1.2826,-1.2826,0,0,0,0,0,0,0,0,-1.2899,-1.2899,-1.289,-1.2887,-1.2884,-1.287,-1.2886,-1.2886,-1.2843,-1.2858,-1.2838,-1.2836,-1.2839,-1.2839,-1.2839,-1.2864,-1.2864,-1.2826,-1.2827,-1.2827,-1.2827,0,0,0,0,0,0,0,-1.29,-1.29,-1.2908,-1.289,-1.2886,-1.2873,-1.287,-1.2886,-1.2859,-1.2856,-1.2852,-1.2851,-1.2837,-1.2838,-1.2838,-1.2863,-1.2826,-1.2827,-1.2828,-1.2828,-1.2922,-1.2923,0,0,0,0,0,0,-1.2904,-1.2901,-1.2908,-1.2907,-1.2887,-1.2875,-1.2872,-1.2876,-1.2858,-1.2854,-1.2852,-1.2848,-1.2838,-1.2837,-1.2838,-1.2885,-1.2827,-1.2828,-1.2829,-1.292,-1.2922,-1.2924,0,0,0,0,0,0,-1.2904,-1.2905,-1.2909,-1.2903,-1.2902,-1.2877,-1.2882,-1.2877,-1.2878,-1.2856,-1.2851,-1.2858,-1.2836,-1.2836,-1.2858,-1.2884,-1.2829,-1.2829,-1.2918,-1.292,-1.2923,-1.2982,0,0,0,0,0,0,-1.2904,-1.2906,-1.2921,-1.2904,-1.2903,-1.293,-1.2884,-1.2878,-1.288,-1.2874,-1.286,-1.2856,-1.2835,-1.2857,-1.2859,-1.2884,-1.283,-1.2915,-1.2919,-1.2922,-1.2978,-1.2986,-1.2994,0,0,0,0,0,-1.2904,-1.2939,-1.2922,-1.2924,-1.2922,-1.2932,-1.2932,-1.2906,-1.2882,-1.2898,-1.2883,-1.2856,-1.2881,-1.286,-1.2862,-1.2888,-1.2913,-1.2918,-1.2922,-1.2974,-1.2985,-1.2994,0,0,0,0,0,0,-1.2961,-1.2936,-1.2917,-1.2948,-1.2942,-1.2923,-1.2942,-1.2918,-1.292,-1.2915,-1.2884,-1.2881,-1.2908,-1.29,-1.2877,-1.2927,-1.2893,-1.2898,-1.2932,-1.2942,-1.295,-1.2951,-1.2831,0,0,0,0,0,-1.2977,-1.2987,-1.2965,-1.2994,-1.2992,-1.2968,-1.2971,-1.2952,-1.2945,-1.2942,-1.293,-1.2924,-1.293,-1.2936,-1.294,-1.2976,-1.2972,-1.2995,-1.3003,-1.301,-1.3014,-1.3032,-1.3042,-1.2938,-1.2938,-1.2938,0,0,-1.3011,-1.2999,-1.3007,-1.3005,-1.2999,-1.301,-1.2966,-1.298,-1.2988,-1.2945,-1.2965,-1.2955,-1.2947,-1.2976,-1.2988,-1.297,-1.3042,-1.3015,-1.3021,-1.3022,-1.3037,-1.3047,-1.3056,-1.2941,-1.294,-1.294,0,0,-1.3078,-1.307,-1.3093,-1.3087,-1.3077,-1.306,-1.3066,-1.3049,-1.3041,-1.3061,-1.3028,-1.3037,-1.3049,-1.3045,-1.3044,-1.3108,-1.3084,-1.3111,-1.3154,-1.3171,-1.3179,-1.3187,-1.3209,-1.3218,-1.3115,-1.3115,-1.3115,0,-1.3122,-1.3137,-1.3108,-1.3124,-1.3124,-1.3084,-1.3107,-1.3103,-1.3096,-1.3097,-1.3077,-1.309,-1.3082,-1.3109,-1.3125,-1.3126,-1.3131,-1.3112,-1.3181,-1.3187,-1.3194,-1.3215,-1.3224,-1.3119,-1.3118,-1.3118,-1.3118,0,-1.319,-1.3201,-1.3221,-1.3214,-1.3216,-1.3236,-1.321,-1.3216,-1.3196,-1.3182,-1.3202,-1.3191,-1.3192,-1.3197,-1.3178,-1.3221,-1.3211,-1.3186,-1.3151,-1.3207,-1.3227,-1.3235,-1.3124,-1.3122,-1.3121,-1.312,0,0,-1.3294,-1.327,-1.3278,-1.3274,-1.326,-1.3268,-1.3285,-1.3286,-1.3291,-1.3287,-1.3301,-1.3312,-1.3289,-1.3288,-1.3268,-1.3284,-1.3335,-1.3257,-1.3256,-1.3272,-1.3382,-1.34,-1.341,-1.3318,-1.332,-1.3321,-1.3382,0,-1.3358,-1.3386,-1.336,-1.3393,-1.3402,-1.3365,-1.338,-1.3373,-1.3359,-1.3366,-1.3351,-1.3359,-1.3328,-1.3327,-1.3341,-1.3326,-1.3357,-1.3321,-1.3331,-1.3332,-1.3335,-1.3421,-1.344,-1.3499,-1.339,-1.3391,-1.3392,0,-1.3436,-1.3434,-1.3468,-1.3451,-1.3454,-1.3468,-1.3466,-1.3473,-1.3464,-1.3453,-1.3452,-1.3427,-1.3443,-1.3408,-1.343,-1.3406,-1.3409,-1.3402,-1.3404,-1.3404,-1.3366,-1.3423,-1.3517,-1.3526,-1.3404,-1.3403,-1.3402,0,-1.3508,-1.3514,-1.3535,-1.3533,-1.3514,-1.3524,-1.3517,-1.3506,-1.3508,-1.3507,-1.3507,-1.3508,-1.3509,-1.351,-1.3486,-1.3463,-1.3511,-1.3474,-1.3502,-1.3503,-1.3514,-1.3514,-1.361,-1.3516,-1.3516,-1.3516,-1.3515,0,-1.3581,-1.3604,-1.3567,-1.358,-1.3604,-1.3574,-1.3598,-1.3587,-1.3578,-1.3588,-1.3555,-1.3566,-1.3534,-1.3541,-1.3522,-1.3543,-1.3543,-1.3535,-1.353,-1.3538,-1.3539,-1.354,-1.3535,-1.3518,-1.3517,-1.3517,-1.3516,0,-1.3666,-1.3643,-1.3663,-1.3643,-1.3638,-1.3656,-1.3639,-1.365,-1.3634,-1.3647,-1.3649,-1.3624,-1.363,-1.3607,-1.361,-1.3597,-1.3627,-1.3616,-1.363,-1.3627,-1.3656,-1.3654,-1.3756,-1.3768,-1.3666,-1.3667,-1.3668,0,-1.3715,-1.3731,-1.3712,-1.3716,-1.371,-1.3717,-1.3719,-1.3689,-1.3692,-1.3683,-1.3695,-1.3699,-1.37,-1.3712,-1.3695,-1.3697,-1.3685,-1.372,-1.3685,-1.3692,-1.3685,-1.3685,-1.3686,-1.3728,-1.3729,-1.373,-1.3731,0,-1.3804,-1.3791,-1.3794,-1.3793,-1.3795,-1.3793,-1.3789,-1.3794,-1.3763,-1.3768,-1.3774,-1.3775,-1.3777,-1.3781,-1.3779,-1.3771,-1.3746,-1.3742,-1.3749,-1.3757,-1.3765,-1.3761,-1.3651,-1.374,-1.3739,-1.3739,-1.3738,-1.3738,-1.3872,-1.3884,-1.3872,-1.3877,-1.387,-1.3867,-1.3876,-1.3861,-1.3865,-1.3864,-1.3847,-1.3856,-1.3846,-1.384,-1.3835,-1.3842,-1.3826,-1.3835,-1.3838,-1.3841,-1.3846,-1.3764,-1.3842,-1.3841,-1.3841,-1.3841,-1.3841,0,-1.3959,-1.3949,-1.3953,-1.3948,-1.3951,-1.3926,-1.392,-1.3925,-1.3933,-1.3926,-1.3927,-1.3934,-1.3937,-1.392,-1.3921,-1.393,-1.3918,-1.3931,-1.393,-1.3929,-1.3861,-1.3855,-1.394,-1.394,-1.394,-1.394,-1.394,-1.394,-1.4005,-1.4024,-1.401,-1.4026,-1.4016,-1.4024,-1.4022,-1.4019,-1.4013,-1.4021,-1.4024,-1.4012,-1.4,-1.4,-1.4002,-1.3997,-1.3999,-1.4016,-1.4007,-1.3943,-1.3934,-1.3925,-1.3919,-1.4017,-1.4017,-1.4075,-1.4075,-1.4076]}]]